Showing default

XINGYUN-2 01, 45602

Orbit data source: Space-Track

XINGYUN-2 01, 45602 is a payload satellite owned by Xingyun (CN) in SSO that was launched on Tue, 12 May 2020 UTC via a KUAIZHOU-1A launch vehicle from the Jiuquan Satellite Launch Center, China (JSC). Payloads include a variety of satellites, spacecraft, and rockets equipped with specific instruments for various scientific and technological missions. These include communications satellites like Starlink; space stations such as the ISS; scientific satellites like the Hubble; Earth observation satellites from companies like Planet Labs, Umbra, and HawkEye 360; GPS; miniature CubeSats for education and research; and military/defense satellites.

Loading next visibility...
XINGYUN-2 01 details
Identifier
45602, 2020-028A
Orbit
SSO
Last TLE update9 hours ago
Origin
Flag of CNXingyun (CN / PRC)
ManufacturerSanjiang
MissionOperational Commercial Communications
Bus & MotorXINGYUN, Unknown motor
Mass93 kg wet, ~85 kg dry
Launch date (UTC)
2020-05-12 (5 years ago)
Launch vehicle
KUAIZHOU-1A
Launch site
Jiuquan Satellite Launch Center, China (JSC)
Object type
Payload
Rocket body
Debris
Shape & HBRBox, Unknown HBR
Radar Cross Section0.569 m², Medium (>0.1 m² and < 1m²)

Expand to show TLE details & history

TLE from 9 hours ago
0 XINGYUN-2 01
1 45602U 20028A   24361.27697369  .00006502  00000-0  42792-3 0  9994
2 45602  97.4587 355.8375 0008286 251.8263 108.2063 15.07850693253662
Epoch: 2024-12-26T06:38Z
Definitive object data (Epoch: 2024-12-26T06:38:50.526Z)
Latitude-0.0001°
Longitude160.86831°
Altitude547.638 km
Speed7.587 km/s
True Right ascension23h 43m 21s
True Declination0° 00' 00"
Sunlit
Object was in daylight at TLE epoch
Visualization TLE readout
Latitude-30.93932°
Longitude-23.24828°
Altitude550.022 km
Speed7.588 km/s
Apparent Right ascension07h 55m 40s
Apparent Declination-57° 32' 30"
Sunlit
Object is in daylight
Visualization observer readout
Local Sidereal Time14:54:40
Azimuth222.85° SW
Elevation-40.258°
Doppler factor1
Orbital elements
Apogee altitude545.485 km
Perigee altitude534.021 km
Semi-major axis6,917.89 km
Eccentricity0.0008286
Inclination97.4587°
RAAN355.8375°
Arg. of periapsis251.8263°
True anomaly108.29647°
Mean anomaly108.2063°
Eccentric anomaly108.25139°
Mean motion3.7721 °/min
BSTAR0.00042792
Orbital period95.44 mins
Loading maneuver chart data...
Loading historical data...
Loading historical data...
Loading historical data...
Loading historical data...
Loading historical data...
Loading historical data...
Loading historical data...
Other satellites on launch #28 in the year 2020 (2020-05-12 UTC)

XINGYUN-2 01 Visibility forecast

Observer location: undefined°, undefined

Span
Click to sort rows by Start time (UTC) header in descending order
Start Az.
Max El. time (UTC)
Max El. Az.
Max El.
End time (UTC)
End Az.
5 mins2024-12-27 00:18:39.047Z202.782° SW2024-12-27 00:20:39.047Z270.052° WNW35.21°2024-12-27 00:23:39.047Z332.029° NNW
4 mins2024-12-27 11:54:39.047Z59.967° ENE2024-12-27 11:56:39.047Z99.989° ESE19.298°2024-12-27 11:58:39.047Z136.054° SSE
4 mins2024-12-27 13:29:39.047Z321.447° NNW2024-12-27 13:30:39.047Z298.018° NW23.575°2024-12-27 13:33:39.047Z237.719° WSW
|